Weather History for KLVK - September, 2013

Change the Weather History Date:

Tuesday, September 24, 2013

  Actual Average Record
Temperature  
Mean Temperature 68 °F 68 °F  
Max Temperature 77 °F 83 °F 106 °F (1936)
Min Temperature 59 °F 54 °F 41 °F (1948)
Degree Days  
Heating Degree Days 0 1  
Month to date heating degree days 0 7  
Since 1 July heating degree days 0 14  
Cooling Degree Days 3 4  
Month to date cooling degree days 174 141  
Year to date cooling degree days 998 766  
Growing Degree Days 18 (Base 50)    
Moisture  
Dew Point 53 °F    
Average Humidity 61    
Maximum Humidity 84    
Minimum Humidity 38    
Precipitation  
Precipitation 0.00 in 0.01 in 0.24 in (1982)
Month to date precipitation 0.47 0.11  
Year to date precipitation 2.59 10.02  
Since 1 July precipitation 0.47 0.12  
Sea Level Pressure  
Sea Level Pressure 29.94 in    
Wind  
Wind Speed 10 mph (WSW)    
Max Wind Speed 21 mph    
Max Gust Speed 25 mph    
Visibility 10 miles    
Events      
T = Trace of Precipitation, MM = Missing Value Source: NWS Daily Summary

Daily Weather History Graph

Daily Weather History Graph

Search for Another Location

Airport or City:

Trip Planner

Search our weather history database for the weather conditions in past years. The results will help you decide how hot, cold, wet, or windy it might be!

Date:

Astronomy

Sep. 24, 2013 Rise Set
Actual Time 6:57 AM PDT 7:00 PM PDT
Civil Twilight 6:30 AM PDT 7:26 PM PDT
Nautical Twilight 6:00 AM PDT 7:57 PM PDT
Astronomical Twilight 5:29 AM PDT 8:27 PM PDT
Moon 10:28 PM PDT (9/24) 12:10 PM PDT (9/24)
Length of Visible Light 12h 55m
Length of Day
12h 03m
Waning Gibbous, 72% of the Moon is Illuminated
Sep 24
Waning Gibbous
Sep 26
Last Quarter
Oct 4
New
Oct 11
First Quarter
Oct 18
Full

Hourly Weather History & Observations

Time (PDT) Temp. Dew Point Humidity Pressure Visibility Wind Dir Wind Speed Gust Speed Precip Events Conditions
12:53 AM 63.0 °F 55.0 °F 75% 29.94 in 10.0 mi WSW 5.8 mph - N/A   Clear
1:53 AM 62.1 °F 55.9 °F 80% 29.94 in 10.0 mi Calm Calm - N/A   Clear
2:53 AM 62.1 °F 55.0 °F 78% 29.94 in 10.0 mi West 3.5 mph - N/A   Clear
3:53 AM 61.0 °F 55.0 °F 81% 29.94 in 10.0 mi Calm Calm - N/A   Clear
4:53 AM 61.0 °F 55.0 °F 81% 29.94 in 10.0 mi Calm Calm - N/A   Clear
5:53 AM 61.0 °F 54.0 °F 78% 29.95 in 10.0 mi Calm Calm - N/A   Clear
6:53 AM 60.1 °F 54.0 °F 80% 29.96 in 10.0 mi West 9.2 mph - N/A   Clear
7:53 AM 63.0 °F 55.0 °F 75% 29.97 in 10.0 mi SSW 10.4 mph - N/A   Clear
8:53 AM 66.0 °F 55.9 °F 70% 29.97 in 5.0 mi SSW 9.2 mph - N/A   Haze
9:10 AM 66.2 °F 55.4 °F 68% 29.98 in 2.0 mi SSW 9.2 mph - N/A   Haze
9:21 AM 66.2 °F 55.4 °F 68% 29.98 in 10.0 mi SSW 10.4 mph - N/A   Clear
9:53 AM 69.1 °F 55.0 °F 61% 29.97 in 10.0 mi SW 12.7 mph - N/A   Clear
10:53 AM 70.0 °F 55.0 °F 59% 29.98 in 10.0 mi SSW 10.4 mph - N/A   Clear
11:53 AM 73.9 °F 48.9 °F 41% 29.97 in 10.0 mi West 17.3 mph - N/A   Clear
12:53 PM 75.0 °F 48.0 °F 38% 29.97 in 10.0 mi West 13.8 mph 19.6 mph N/A   Clear
1:53 PM 75.0 °F 48.9 °F 40% 29.95 in 10.0 mi West 9.2 mph - N/A   Clear
2:53 PM 75.9 °F 48.0 °F 37% 29.92 in 10.0 mi WSW 9.2 mph - N/A   Clear
3:53 PM 75.0 °F 51.1 °F 43% 29.92 in 10.0 mi West 19.6 mph - N/A   Clear
4:53 PM 72.0 °F 54.0 °F 53% 29.91 in 10.0 mi WSW 16.1 mph - N/A   Clear
5:53 PM 69.1 °F 54.0 °F 58% 29.91 in 10.0 mi WSW 11.5 mph - N/A   Clear
6:53 PM 64.9 °F 53.1 °F 65% 29.91 in 10.0 mi SW 12.7 mph - N/A   Clear
7:53 PM 63.0 °F 53.1 °F 70% 29.91 in 10.0 mi SW 8.1 mph - N/A   Clear
8:53 PM 62.1 °F 53.1 °F 72% 29.91 in 10.0 mi SSW 10.4 mph - N/A   Clear
9:53 PM 61.0 °F 53.1 °F 75% 29.92 in 10.0 mi WSW 9.2 mph - N/A   Clear
10:53 PM 61.0 °F 46.9 °F 60% 29.92 in 10.0 mi West 11.5 mph - N/A   Clear
11:53 PM 60.1 °F 50.0 °F 69% 29.91 in 10.0 mi SW 10.4 mph - N/A   Clear